Weather History for Sedalia, MO

Change the Weather History Date:

Tuesday, October 16, 2012

  Actual Average Record
Temperature  
Mean Temperature 67 °F 58 °F  
Max Temperature 80 °F 69 °F 88 °F (1950)
Min Temperature 54 °F 48 °F 27 °F (1943)
Degree Days  
Heating Degree Days 0 8  
Month to date heating degree days 138 97  
Since 1 July heating degree days 178 142  
Cooling Degree Days 2 1  
Month to date cooling degree days 2 26  
Year to date cooling degree days 2082 1476  
Growing Degree Days 17 (Base 50)    
Moisture  
Dew Point 47 °F    
Average Humidity 56    
Maximum Humidity 83    
Minimum Humidity 28    
Precipitation  
Precipitation 0.00 in 0.12 in 2.75 in (1980)
Month to date precipitation 2.37 2.02  
Year to date precipitation 24.55 34.07  
Sea Level Pressure  
Sea Level Pressure 29.68 in    
Wind  
Wind Speed 16 mph (SSW)    
Max Wind Speed 29 mph    
Max Gust Speed 38 mph    
Visibility 10 miles    
Events      
T = Trace of Precipitation, MM = Missing Value Source: NWS Daily Summary

Daily Weather History Graph

Daily Weather History Graph

Search for Another Location

Airport:

Trip Planner

Search our weather history database for the weather conditions in past years. The results will help you decide how hot, cold, wet, or windy it might be!

Date:

Astronomy

Oct. 16, 2012 Rise Set
Actual Time 7:23 AM CDT 6:32 PM CDT
Civil Twilight 6:56 AM CDT 6:59 PM CDT
Nautical Twilight 6:25 AM CDT 7:29 PM CDT
Astronomical Twilight 5:54 AM CDT 8:00 PM CDT
Moon 8:45 AM CDT (10/16) 7:18 PM CDT (10/16)
Length of Visible Light 12h 02m
Length of Day
11h 08m
New Moon, 2% of the Moon is Illuminated
Oct 16
New Moon
Oct 21
First Quarter
Oct 29
Full
Nov 6
Last Quarter
Nov 13
New

Hourly Weather History & Observations

Time (CDT) Temp. Dew Point Humidity Pressure Visibility Wind Dir Wind Speed Gust Speed Precip Events Conditions
12:53 AM 57.0 °F 46.9 °F 69% 29.86 in 10.0 mi SE 6.9 mph - N/A   Clear
1:53 AM 55.0 °F 48.0 °F 77% 29.85 in 10.0 mi SSE 9.2 mph - N/A   Clear
2:53 AM 54.0 °F 48.9 °F 83% 29.82 in 10.0 mi South 9.2 mph - N/A   Clear
3:53 AM 57.0 °F 48.9 °F 74% 29.79 in 10.0 mi South 10.4 mph - N/A   Clear
4:53 AM 60.1 °F 50.0 °F 69% 29.78 in 10.0 mi SSW 12.7 mph - N/A   Clear
5:53 AM 61.0 °F 50.0 °F 67% 29.77 in 10.0 mi SSW 13.8 mph - N/A   Clear
7:53 AM 62.1 °F 48.9 °F 62% 29.76 in 10.0 mi SSW 18.4 mph 28.8 mph N/A   Clear
8:53 AM 64.9 °F 50.0 °F 58% 29.76 in 10.0 mi SSW 17.3 mph 25.3 mph N/A   Clear
9:53 AM 69.1 °F 50.0 °F 51% 29.75 in 10.0 mi SSW 18.4 mph 28.8 mph N/A   Unknown
10:53 AM 73.0 °F 50.0 °F 44% 29.73 in 10.0 mi SSW 21.9 mph 28.8 mph N/A   Clear
11:53 AM 75.9 °F 48.9 °F 38% 29.72 in 10.0 mi SSW 17.3 mph 27.6 mph N/A   Clear
12:53 PM 77.0 °F 48.9 °F 37% 29.69 in 10.0 mi SSW 19.6 mph 29.9 mph N/A   Clear
1:53 PM 79.0 °F 46.9 °F 32% 29.66 in 10.0 mi SW 24.2 mph 32.2 mph N/A   Clear
2:53 PM 80.1 °F 45.0 °F 29% 29.62 in 10.0 mi SSW 29.9 mph 38.0 mph N/A   Clear
3:53 PM 80.1 °F 45.0 °F 29% 29.60 in 10.0 mi SSW 23.0 mph 32.2 mph N/A   Clear
4:53 PM 78.1 °F 46.0 °F 32% 29.57 in 10.0 mi SSW 15.0 mph 26.5 mph N/A   Clear
5:53 PM 75.9 °F 44.1 °F 32% 29.57 in 10.0 mi SSW 13.8 mph 25.3 mph N/A   Clear
6:53 PM 72.0 °F 43.0 °F 35% 29.57 in 10.0 mi SSW 11.5 mph - N/A   Clear
7:53 PM 69.1 °F 44.1 °F 40% 29.57 in 10.0 mi South 9.2 mph - N/A   Clear
8:53 PM 69.1 °F 43.0 °F 39% 29.57 in 10.0 mi SSW 16.1 mph 20.7 mph N/A   Clear
9:53 PM 68.0 °F 44.1 °F 42% 29.58 in 10.0 mi South 11.5 mph - N/A   Clear
10:53 PM 66.9 °F 45.0 °F 45% 29.58 in 10.0 mi SSW 13.8 mph 20.7 mph N/A   Clear
11:53 PM 66.0 °F 45.0 °F 47% 29.56 in 10.0 mi South 16.1 mph 23.0 mph N/A   Clear